| time (UTC) | temp F | wind direction | speed MPH | gust MPH | rain 1hr in | rain 24hr in | rain mn in | humidity % | barometer mb |
| 20260831112313 | 32 | 147 | 0.0 | 0.0 | 0.00 | 0.00 | 0.00 | 96 | 1024.8 |
| 20260831111808 | 32 | 147 | 0.0 | 0.0 | 0.00 | 0.00 | 0.00 | 96 | 1024.7 |
| 20260831111304 | 32 | 147 | 0.0 | 0.0 | 0.00 | 0.00 | 0.00 | 96 | 1024.7 |
| 20260831110800 | 32 | 147 | 0.0 | 0.0 | 0.00 | 0.00 | 0.00 | 96 | 1024.7 |
| 20260831110255 | 32 | 147 | 0.0 | 0.0 | 0.00 | 0.00 | 0.00 | 95 | 1024.6 |
| 20260831105753 | 32 | 147 | 0.0 | 0.0 | 0.00 | 0.00 | 0.00 | 95 | 1024.6 |
| 20260831105249 | 32 | 147 | 0.0 | 0.0 | 0.00 | 0.00 | 0.00 | 95 | 1024.5 |
| 20260831104743 | 32 | 147 | 0.0 | 0.0 | 0.00 | 0.00 | 0.00 | 94 | 1024.7 |
| 20260831104240 | 32 | 147 | 0.0 | 0.0 | 0.00 | 0.00 | 0.00 | 94 | 1024.6 |
| 20260831103740 | 32 | 147 | 0.0 | 0.0 | 0.00 | 0.00 | 0.00 | 94 | 1024.6 |
| 20260831103236 | 32 | 147 | 0.0 | 0.0 | 0.00 | 0.00 | 0.00 | 94 | 1024.7 |
| 20260831102735 | 32 | 147 | 0.0 | 0.0 | 0.00 | 0.00 | 0.00 | 94 | 1024.7 |
| 20260831102230 | 32 | 147 | 0.0 | 0.0 | 0.00 | 0.00 | 0.00 | 94 | 1024.7 |
| 20260831101726 | 32 | 147 | 0.0 | 0.0 | 0.00 | 0.00 | 0.00 | 94 | 1024.7 |
| 20260831101221 | 33 | 147 | 0.0 | 0.0 | 0.00 | 0.00 | 0.00 | 93 | 1024.4 |
| 20260831100717 | 33 | 148 | 0.0 | 0.0 | 0.00 | 0.00 | 0.00 | 93 | 1024.6 |
| 20260831100213 | 33 | 148 | 0.0 | 0.0 | 0.00 | 0.00 | 0.00 | 93 | 1024.5 |
| 20260831095711 | 33 | 147 | 0.0 | 0.0 | 0.00 | 0.00 | 0.00 | 93 | 1024.5 |
| 20260831095206 | 33 | 147 | 0.0 | 0.0 | 0.00 | 0.00 | 0.00 | 92 | 1024.5 |
| 20260831094702 | 33 | 147 | 0.0 | 0.0 | 0.00 | 0.00 | 0.00 | 92 | 1024.6 |
| 20260831094158 | 33 | 147 | 0.0 | 0.0 | 0.00 | 0.00 | 0.00 | 92 | 1024.6 |
| 20260831093654 | 33 | 147 | 0.0 | 0.0 | 0.00 | 0.00 | 0.00 | 91 | 1024.4 |
| 20260831093149 | 33 | 147 | 0.0 | 0.0 | 0.00 | 0.00 | 0.00 | 91 | 1024.4 |
| 20260831092645 | 34 | 147 | 0.0 | 0.0 | 0.00 | 0.00 | 0.00 | 91 | 1024.4 |
| 20260831092141 | 34 | 147 | 0.0 | 0.0 | 0.00 | 0.00 | 0.00 | 91 | 1024.5 |
| 20260831091640 | 34 | 147 | 0.0 | 0.0 | 0.00 | 0.00 | 0.00 | 91 | 1024.4 |
| 20260831091136 | 34 | 147 | 0.0 | 0.0 | 0.00 | 0.00 | 0.00 | 91 | 1024.2 |
| 20260831090631 | 34 | 147 | 0.0 | 0.0 | 0.00 | 0.00 | 0.00 | 90 | 1024.5 |
| 20260831090127 | 34 | 147 | 0.0 | 0.0 | 0.00 | 0.00 | 0.00 | 90 | 1024.6 |
| 20260831085622 | 35 | 147 | 0.0 | 0.0 | 0.00 | 0.00 | 0.00 | 89 | 1024.1 |
| 20260831085117 | 35 | 147 | 0.0 | 0.0 | 0.00 | 0.00 | 0.00 | 89 | 1024.2 |
| 20260831084613 | 35 | 147 | 0.0 | 0.0 | 0.00 | 0.00 | 0.00 | 90 | 1024.4 |
| 20260831084109 | 35 | 147 | 0.0 | 0.0 | 0.00 | 0.00 | 0.00 | 90 | 1024.2 |
| 20260831083606 | 35 | 147 | 0.0 | 0.0 | 0.00 | 0.00 | 0.00 | 89 | 1024.4 |
| 20260831083106 | 35 | 147 | 0.0 | 0.0 | 0.00 | 0.00 | 0.00 | 89 | 1024.4 |
| 20260831082604 | 35 | 147 | 0.0 | 0.0 | 0.00 | 0.00 | 0.00 | 88 | 1024.4 |
| 20260831082059 | 36 | 147 | 0.0 | 0.0 | 0.00 | 0.00 | 0.00 | 87 | 1024.2 |
| 20260831081555 | 36 | 147 | 0.0 | 0.0 | 0.00 | 0.00 | 0.00 | 87 | 1024.5 |
| 20260831081052 | 36 | 148 | 0.0 | 0.0 | 0.00 | 0.00 | 0.00 | 87 | 1024.2 |
| 20260831080552 | 36 | 147 | 0.0 | 0.0 | 0.00 | 0.00 | 0.00 | 86 | 1024.4 |
| 20260831080048 | 37 | 148 | 0.0 | 0.0 | 0.00 | 0.00 | 0.00 | 87 | 1024.5 |
| 20260831075548 | 37 | 147 | 0.0 | 0.0 | 0.00 | 0.00 | 0.00 | 87 | 1024.2 |
| 20260831075043 | 37 | 147 | 0.0 | 0.0 | 0.00 | 0.00 | 0.00 | 86 | 1024.5 |
| 20260831074543 | 37 | 146 | 0.0 | 0.0 | 0.00 | 0.00 | 0.00 | 86 | 1024.2 |
| 20260831074042 | 37 | 147 | 0.0 | 0.0 | 0.00 | 0.00 | 0.00 | 86 | 1024.2 |
| 20260831073538 | 37 | 148 | 0.0 | 0.0 | 0.00 | 0.00 | 0.00 | 85 | 1024.1 |
| 20260831073037 | 37 | 289 | 0.0 | 0.0 | 0.00 | 0.00 | 0.00 | 85 | 1024.2 |
| 20260831072532 | 38 | 289 | 0.0 | 0.0 | 0.00 | 0.00 | 0.00 | 84 | 1024.1 |
| 20260831072029 | 38 | 307 | 0.0 | 0.0 | 0.00 | 0.00 | 0.00 | 84 | 1024.4 |
| 20260831071527 | 38 | 307 | 0.0 | 0.0 | 0.00 | 0.00 | 0.00 | 85 | 1024.2 |
| 20260831071023 | 38 | 307 | 0.0 | 0.0 | 0.00 | 0.00 | 0.00 | 84 | 1024.2 |
| 20260831070522 | 38 | 308 | 0.0 | 0.0 | 0.00 | 0.00 | 0.00 | 84 | 1024.2 |
| 20260831070017 | 38 | 308 | 0.0 | 0.0 | 0.00 | 0.00 | 0.00 | 84 | 1024.2 |
| 20260831065515 | 38 | 282 | 0.0 | 0.0 | 0.00 | 0.00 | 0.00 | 84 | 1024.4 |
| 20260831065009 | 39 | 282 | 0.0 | 0.0 | 0.00 | 0.00 | 0.00 | 83 | 1024.4 |
| 20260831064504 | 39 | 282 | 0.0 | 0.0 | 0.00 | 0.00 | 0.00 | 83 | 1024.2 |
| 20260831064000 | 39 | 282 | 0.0 | 0.0 | 0.00 | 0.00 | 0.00 | 84 | 1024.4 |
| 20260831063455 | 39 | 282 | 0.0 | 0.0 | 0.00 | 0.00 | 0.00 | 84 | 1024.5 |
| 20260831062954 | 39 | 282 | 0.0 | 0.0 | 0.00 | 0.00 | 0.00 | 82 | 1024.5 |
| 20260831062450 | 40 | 282 | 0.0 | 0.0 | 0.00 | 0.00 | 0.00 | 82 | 1024.5 |
| 20260831061949 | 40 | 282 | 0.0 | 0.0 | 0.00 | 0.00 | 0.00 | 82 | 1024.4 |
| 20260831061448 | 40 | 282 | 0.0 | 0.0 | 0.00 | 0.00 | 0.00 | 80 | 1024.5 |
| 20260831060944 | 41 | 282 | 0.0 | 0.0 | 0.00 | 0.00 | 0.00 | 80 | 1024.6 |
| 20260831060439 | 41 | 282 | 0.0 | 0.0 | 0.00 | 0.00 | 0.00 | 80 | 1024.4 |
| 20260831055938 | 40 | 282 | 0.0 | 0.0 | 0.00 | 0.00 | 0.00 | 81 | 1024.2 |
| 20260831055433 | 40 | 282 | 0.0 | 0.0 | 0.00 | 0.00 | 0.00 | 81 | 1024.6 |
| 20260831054930 | 41 | 282 | 0.0 | 0.0 | 0.00 | 0.00 | 0.00 | 80 | 1024.4 |
| 20260831054430 | 41 | 282 | 0.0 | 0.0 | 0.00 | 0.00 | 0.00 | 80 | 1024.2 |
| 20260831053929 | 41 | 282 | 0.0 | 0.0 | 0.00 | 0.00 | 0.00 | 79 | 1024.4 |
| 20260831053427 | 41 | 282 | 0.0 | 0.0 | 0.00 | 0.00 | 0.00 | 79 | 1024.2 |
| 20260831052922 | 41 | 282 | 0.0 | 0.0 | 0.00 | 0.00 | 0.00 | 79 | 1024.4 |
| 20260831052421 | 41 | 282 | 0.0 | 0.0 | 0.00 | 0.00 | 0.00 | 78 | 1024.2 |
| 20260831051920 | 42 | 282 | 0.0 | 0.0 | 0.00 | 0.00 | 0.00 | 78 | 1024.6 |
| 20260831051418 | 42 | 282 | 0.0 | 0.0 | 0.00 | 0.00 | 0.00 | 77 | 1024.5 |
| 20260831050914 | 42 | 282 | 0.0 | 0.0 | 0.00 | 0.00 | 0.00 | 77 | 1024.5 |
| 20260831050408 | 42 | 282 | 0.0 | 0.0 | 0.00 | 0.00 | 0.00 | 77 | 1024.6 |
| 20260831045907 | 42 | 282 | 0.0 | 0.0 | 0.00 | 0.00 | 0.00 | 77 | 1024.2 |
| 20260831045406 | 42 | 282 | 0.0 | 0.0 | 0.00 | 0.00 | 0.00 | 77 | 1024.2 |
| 20260831044901 | 42 | 282 | 0.0 | 0.0 | 0.00 | 0.00 | 0.00 | 76 | 1024.6 |
| 20260831044402 | 43 | 282 | 0.0 | 0.0 | 0.00 | 0.00 | 0.00 | 75 | 1024.5 |
| 20260831043858 | 44 | 282 | 0.0 | 0.0 | 0.00 | 0.00 | 0.00 | 74 | 1024.4 |
| 20260831043357 | 44 | 282 | 0.0 | 0.0 | 0.00 | 0.00 | 0.00 | 73 | 1024.6 |
| 20260831042852 | 44 | 284 | 0.0 | 0.0 | 0.00 | 0.00 | 0.00 | 73 | 1024.4 |
| 20260831042351 | 44 | 284 | 0.0 | 0.0 | 0.00 | 0.00 | 0.00 | 72 | 1024.5 |
| 20260831041847 | 44 | 284 | 0.0 | 0.0 | 0.00 | 0.00 | 0.00 | 72 | 1024.4 |
| 20260831041347 | 45 | 283 | 0.0 | 0.0 | 0.00 | 0.00 | 0.00 | 71 | 1024.2 |
| 20260831040842 | 45 | 283 | 0.0 | 0.0 | 0.00 | 0.00 | 0.00 | 70 | 1024.1 |
| 20260831040342 | 45 | 284 | 0.0 | 0.0 | 0.00 | 0.00 | 0.00 | 70 | 1024.1 |
| 20260831035840 | 46 | 283 | 0.0 | 0.0 | 0.00 | 0.00 | 0.00 | 69 | 1024.2 |
| 20260831035338 | 46 | 286 | 0.0 | 0.0 | 0.00 | 0.00 | 0.00 | 68 | 1023.9 |
| 20260831034833 | 46 | 286 | 0.0 | 0.0 | 0.00 | 0.00 | 0.00 | 67 | 1023.9 |
| 20260831034329 | 46 | 291 | 0.0 | 0.0 | 0.00 | 0.00 | 0.00 | 66 | 1023.9 |
| 20260831033824 | 47 | 291 | 0.0 | 0.0 | 0.00 | 0.00 | 0.00 | 65 | 1023.8 |
| 20260831033324 | 47 | 291 | 0.0 | 0.0 | 0.00 | 0.00 | 0.00 | 65 | 1023.8 |
| 20260831032820 | 48 | 291 | 0.0 | 0.0 | 0.00 | 0.00 | 0.00 | 63 | 1023.7 |
| 20260831032314 | 48 | 293 | 0.0 | 0.0 | 0.00 | 0.00 | 0.00 | 63 | 1023.8 |
| 20260831031810 | 48 | 297 | 0.0 | 0.0 | 0.00 | 0.00 | 0.00 | 63 | 1023.6 |
| 20260831031309 | 49 | 297 | 0.0 | 0.0 | 0.00 | 0.00 | 0.00 | 61 | 1023.6 |
| 20260831030804 | 49 | 299 | 0.0 | 0.0 | 0.00 | 0.00 | 0.00 | 62 | 1023.6 |
| 20260831030302 | 49 | 300 | 0.0 | 0.0 | 0.00 | 0.00 | 0.00 | 62 | 1023.5 |
| 20260831025801 | 50 | 300 | 0.0 | 0.0 | 0.00 | 0.00 | 0.00 | 61 | 1023.5 |
| 20260831025255 | 50 | 300 | 0.0 | 0.0 | 0.00 | 0.00 | 0.00 | 59 | 1023.1 |
| 20260831024752 | 51 | 300 | 0.0 | 0.0 | 0.00 | 0.00 | 0.00 | 58 | 1023.1 |
| 20260831024251 | 51 | 300 | 0.0 | 0.0 | 0.00 | 0.00 | 0.00 | 57 | 1023.1 |
| 20260831023750 | 52 | 300 | 0.0 | 0.0 | 0.00 | 0.00 | 0.00 | 56 | 1023.0 |
| 20260831023248 | 52 | 300 | 0.0 | 0.0 | 0.00 | 0.00 | 0.00 | 57 | 1022.9 |
| 20260831022744 | 53 | 300 | 0.0 | 0.0 | 0.00 | 0.00 | 0.00 | 57 | 1022.8 |
| 20260831022243 | 53 | 301 | 0.0 | 0.0 | 0.00 | 0.00 | 0.00 | 55 | 1022.9 |
| 20260831021738 | 54 | 300 | 0.0 | 0.0 | 0.00 | 0.00 | 0.00 | 54 | 1022.7 |
| 20260831021237 | 55 | 293 | 0.0 | 0.0 | 0.00 | 0.00 | 0.00 | 54 | 1022.7 |
| 20260831020734 | 55 | 176 | 1.0 | 2.0 | 0.00 | 0.00 | 0.00 | 53 | 1022.7 |
| 20260831020233 | 56 | 312 | 0.0 | 0.0 | 0.00 | 0.00 | 0.00 | 53 | 1022.5 |
| 20260831015729 | 56 | 319 | 0.0 | 0.0 | 0.00 | 0.00 | 0.00 | 51 | 1022.5 |
| 20260831015224 | 57 | 304 | 0.0 | 0.0 | 0.00 | 0.00 | 0.00 | 50 | 1022.7 |
| 20260831014719 | 57 | 265 | 0.0 | 0.0 | 0.00 | 0.00 | 0.00 | 51 | 1022.6 |
| 20260831014214 | 57 | 85 | 0.0 | 1.0 | 0.00 | 0.00 | 0.00 | 50 | 1022.7 |
| 20260831013710 | 58 | 59 | 0.0 | 1.0 | 0.00 | 0.00 | 0.00 | 50 | 1022.8 |
| 20260831013209 | 59 | 314 | 0.0 | 1.0 | 0.00 | 0.00 | 0.00 | 48 | 1022.7 |
| 20260831012704 | 59 | 339 | 0.0 | 0.0 | 0.00 | 0.00 | 0.00 | 47 | 1022.6 |
| 20260831012200 | 60 | 276 | 0.0 | 1.0 | 0.00 | 0.00 | 0.00 | 45 | 1022.6 |
| 20260831011700 | 60 | 312 | 0.0 | 2.0 | 0.00 | 0.00 | 0.00 | 45 | 1022.2 |
| 20260831011156 | 61 | 261 | 1.0 | 2.0 | 0.00 | 0.00 | 0.00 | 44 | 1022.4 |
| 20260831010651 | 62 | 299 | 2.0 | 3.0 | 0.00 | 0.00 | 0.00 | 43 | 1022.2 |
| 20260831010146 | 65 | 297 | 1.0 | 2.0 | 0.00 | 0.00 | 0.00 | 42 | 1022.4 |
| 20260831005646 | 65 | 37 | 5.0 | 7.0 | 0.00 | 0.00 | 0.00 | 36 | 1022.6 |
| 20260831005141 | 65 | 317 | 0.0 | 1.0 | 0.00 | 0.00 | 0.00 | 35 | 1022.6 |
| 20260831004637 | 65 | 329 | 3.0 | 5.0 | 0.00 | 0.00 | 0.00 | 36 | 1022.6 |
| 20260831004133 | 66 | 310 | 0.0 | 1.0 | 0.00 | 0.00 | 0.00 | 35 | 1022.8 |
| 20260831003629 | 65 | 41 | 1.0 | 3.0 | 0.00 | 0.00 | 0.00 | 36 | 1022.6 |
| 20260831003124 | 66 | 48 | 3.0 | 7.0 | 0.00 | 0.00 | 0.00 | 35 | 1022.6 |
| 20260831002623 | 66 | 327 | 2.0 | 5.0 | 0.00 | 0.00 | 0.00 | 34 | 1022.7 |
| 20260831002118 | 66 | 216 | 2.0 | 8.0 | 0.00 | 0.00 | 0.00 | 35 | 1022.7 |
| 20260831001614 | 66 | 21 | 7.0 | 8.0 | 0.00 | 0.00 | 0.00 | 34 | 1022.6 |
| 20260831001109 | 67 | 332 | 5.0 | 11.0 | 0.00 | 0.00 | 0.00 | 34 | 1022.6 |
| 20260831000606 | 66 | 344 | 4.0 | 8.0 | 0.00 | 0.00 | 0.00 | 34 | 1022.2 |
| 20260831000105 | 66 | 11 | 6.0 | 10.0 | 0.00 | 0.00 | 0.00 | 34 | 1022.7 |
| 20260830235604 | 67 | 58 | 1.0 | 11.0 | 0.00 | 0.00 | 0.00 | 34 | 1022.5 |
| 20260830235059 | 67 | 356 | 3.0 | 6.0 | 0.00 | 0.00 | 0.00 | 34 | 1022.4 |
| 20260830234554 | 66 | 22 | 3.0 | 3.0 | 0.00 | 0.00 | 0.00 | 34 | 1022.7 |
| 20260830234049 | 66 | 301 | 5.0 | 7.0 | 0.00 | 0.00 | 0.00 | 34 | 1022.5 |
| 20260830233544 | 66 | 61 | 6.0 | 7.0 | 0.00 | 0.00 | 0.00 | 35 | 1022.2 |
| 20260830233040 | 67 | 41 | 9.0 | 10.0 | 0.00 | 0.00 | 0.00 | 34 | 1022.4 |
| 20260830232536 | 67 | 29 | 3.0 | 9.0 | 0.00 | 0.00 | 0.00 | 34 | 1022.2 |
| 20260830232032 | 68 | 2 | 6.0 | 9.0 | 0.00 | 0.00 | 0.00 | 33 | 1022.2 |
| 20260830231528 | 67 | 29 | 5.0 | 7.0 | 0.00 | 0.00 | 0.00 | 34 | 1022.2 |
| 20260830231027 | 68 | 45 | 5.0 | 11.0 | 0.00 | 0.00 | 0.00 | 34 | 1022.5 |
| 20260830230522 | 68 | 347 | 5.0 | 8.0 | 0.00 | 0.00 | 0.00 | 33 | 1022.4 |
| 20260830230017 | 66 | 288 | 2.0 | 2.0 | 0.00 | 0.00 | 0.00 | 33 | 1022.5 |
| 20260830225512 | 66 | 237 | 3.0 | 3.0 | 0.00 | 0.00 | 0.00 | 34 | 1022.1 |
| 20260830225012 | 66 | 311 | 3.0 | 8.0 | 0.00 | 0.00 | 0.00 | 34 | 1022.6 |
| 20260830224510 | 66 | 305 | 5.0 | 8.0 | 0.00 | 0.00 | 0.00 | 34 | 1022.6 |
| 20260830224007 | 67 | 293 | 5.0 | 11.0 | 0.00 | 0.00 | 0.00 | 34 | 1022.5 |
| 20260830223504 | 67 | 292 | 6.0 | 8.0 | 0.00 | 0.00 | 0.00 | 34 | 1022.2 |
| 20260830223003 | 68 | 279 | 4.0 | 9.0 | 0.00 | 0.00 | 0.00 | 33 | 1022.5 |
| 20260830222458 | 68 | 299 | 2.0 | 5.0 | 0.00 | 0.00 | 0.00 | 33 | 1022.4 |
| 20260830221954 | 67 | 28 | 6.0 | 8.0 | 0.00 | 0.00 | 0.00 | 33 | 1022.6 |
| 20260830221449 | 67 | 33 | 1.0 | 9.0 | 0.00 | 0.00 | 0.00 | 33 | 1022.4 |
| 20260830220939 | 67 | 275 | 2.0 | 10.0 | 0.00 | 0.00 | 0.00 | 34 | 1022.4 |
| 20260830220434 | 66 | 341 | 2.0 | 13.0 | 0.00 | 0.00 | 0.00 | 34 | 1022.5 |
| 20260830215931 | 67 | 2 | 5.0 | 9.0 | 0.00 | 0.00 | 0.00 | 33 | 1022.4 |
| 20260830215426 | 67 | 161 | 3.0 | 6.0 | 0.00 | 0.00 | 0.00 | 34 | 1022.5 |
| 20260830214920 | 67 | 305 | 3.0 | 6.0 | 0.00 | 0.00 | 0.00 | 35 | 1022.7 |
| 20260830214416 | 66 | 79 | 4.0 | 6.0 | 0.00 | 0.00 | 0.00 | 34 | 1022.7 |
| 20260830213916 | 67 | 92 | 0.0 | 6.0 | 0.00 | 0.00 | 0.00 | 33 | 1022.6 |
| 20260830213412 | 67 | 211 | 3.0 | 9.0 | 0.00 | 0.00 | 0.00 | 34 | 1022.8 |
| 20260830212907 | 67 | 254 | 4.0 | 7.0 | 0.00 | 0.00 | 0.00 | 33 | 1022.6 |
| 20260830212403 | 67 | 26 | 4.0 | 9.0 | 0.00 | 0.00 | 0.00 | 33 | 1022.4 |
| 20260830211902 | 67 | 345 | 5.0 | 13.0 | 0.00 | 0.00 | 0.00 | 32 | 1022.6 |
| 20260830211356 | 66 | 277 | 4.0 | 7.0 | 0.00 | 0.00 | 0.00 | 33 | 1022.5 |
| 20260830210852 | 66 | 28 | 6.0 | 14.0 | 0.00 | 0.00 | 0.00 | 33 | 1022.4 |
| 20260830210351 | 66 | 355 | 10.0 | 17.0 | 0.00 | 0.00 | 0.00 | 33 | 1022.5 |
| 20260830205844 | 67 | 23 | 8.0 | 10.0 | 0.00 | 0.00 | 0.00 | 33 | 1022.2 |
| 20260830205343 | 66 | 30 | 4.0 | 5.0 | 0.00 | 0.00 | 0.00 | 34 | 1022.4 |
| 20260830204838 | 66 | 28 | 7.0 | 11.0 | 0.00 | 0.00 | 0.00 | 34 | 1022.4 |
| 20260830204337 | 66 | 94 | 10.0 | 13.0 | 0.00 | 0.00 | 0.00 | 34 | 1022.2 |
| 20260830203833 | 66 | 2 | 6.0 | 8.0 | 0.00 | 0.00 | 0.00 | 35 | 1022.4 |
| 20260830203329 | 66 | 18 | 2.0 | 3.0 | 0.00 | 0.00 | 0.00 | 35 | 1022.4 |
| 20260830202828 | 66 | 323 | 9.0 | 14.0 | 0.00 | 0.00 | 0.00 | 35 | 1022.5 |
| 20260830202323 | 66 | 279 | 2.0 | 3.0 | 0.00 | 0.00 | 0.00 | 35 | 1022.7 |
| 20260830201819 | 65 | 261 | 5.0 | 8.0 | 0.00 | 0.00 | 0.00 | 35 | 1022.9 |
| 20260830201313 | 65 | 352 | 2.0 | 8.0 | 0.00 | 0.00 | 0.00 | 36 | 1022.9 |
| 20260830200808 | 65 | 301 | 1.0 | 7.0 | 0.00 | 0.00 | 0.00 | 36 | 1022.8 |
| 20260830200302 | 65 | 30 | 3.0 | 14.0 | 0.00 | 0.00 | 0.00 | 36 | 1022.7 |
| 20260830195758 | 65 | 346 | 4.0 | 9.0 | 0.00 | 0.00 | 0.00 | 36 | 1022.6 |
| 20260830195257 | 65 | 26 | 5.0 | 9.0 | 0.00 | 0.00 | 0.00 | 35 | 1022.6 |
| 20260830194754 | 64 | 350 | 5.0 | 10.0 | 0.00 | 0.00 | 0.00 | 36 | 1022.8 |
| 20260830194250 | 66 | 42 | 5.0 | 7.0 | 0.00 | 0.00 | 0.00 | 35 | 1022.6 |
| 20260830193749 | 65 | 235 | 3.0 | 5.0 | 0.00 | 0.00 | 0.00 | 35 | 1022.7 |
| 20260830193243 | 64 | 246 | 2.0 | 7.0 | 0.00 | 0.00 | 0.00 | 35 | 1022.6 |
| 20260830192734 | 66 | 310 | 6.0 | 7.0 | 0.00 | 0.00 | 0.00 | 35 | 1022.6 |
| 20260830192233 | 65 | 336 | 5.0 | 7.0 | 0.00 | 0.00 | 0.00 | 35 | 1022.6 |
| 20260830191730 | 64 | 25 | 3.0 | 3.0 | 0.00 | 0.00 | 0.00 | 36 | 1022.5 |
| 20260830191229 | 64 | 301 | 5.0 | 7.0 | 0.00 | 0.00 | 0.00 | 37 | 1022.7 |
| 20260830190725 | 64 | 281 | 3.0 | 3.0 | 0.00 | 0.00 | 0.00 | 37 | 1022.6 |
| 20260830190220 | 64 | 337 | 3.0 | 10.0 | 0.00 | 0.00 | 0.00 | 37 | 1022.7 |
| 20260830185718 | 64 | 27 | 6.0 | 7.0 | 0.00 | 0.00 | 0.00 | 38 | 1022.8 |
| 20260830185214 | 64 | 212 | 5.0 | 6.0 | 0.00 | 0.00 | 0.00 | 38 | 1022.8 |
| 20260830184713 | 64 | 253 | 3.0 | 5.0 | 0.00 | 0.00 | 0.00 | 38 | 1022.9 |
| 20260830184213 | 62 | 266 | 5.0 | 11.0 | 0.00 | 0.00 | 0.00 | 39 | 1023.1 |
| 20260830183708 | 62 | 314 | 1.0 | 8.0 | 0.00 | 0.00 | 0.00 | 39 | 1023.0 |
| 20260830183203 | 62 | 49 | 1.0 | 5.0 | 0.00 | 0.00 | 0.00 | 40 | 1023.2 |
| 20260830182658 | 62 | 121 | 3.0 | 9.0 | 0.00 | 0.00 | 0.00 | 40 | 1023.0 |
| 20260830182154 | 63 | 356 | 6.0 | 7.0 | 0.00 | 0.00 | 0.00 | 39 | 1023.1 |
| 20260830181650 | 62 | 332 | 3.0 | 9.0 | 0.00 | 0.00 | 0.00 | 39 | 1023.0 |
| 20260830181144 | 61 | 63 | 5.0 | 7.0 | 0.00 | 0.00 | 0.00 | 40 | 1022.9 |
| 20260830180643 | 61 | 142 | 5.0 | 7.0 | 0.00 | 0.00 | 0.00 | 39 | 1023.1 |
| 20260830180138 | 60 | 234 | 2.0 | 3.0 | 0.00 | 0.00 | 0.00 | 41 | 1023.4 |
| 20260830175637 | 61 | 27 | 12.0 | 17.0 | 0.00 | 0.00 | 0.00 | 40 | 1023.4 |
| 20260830175132 | 60 | 326 | 8.0 | 10.0 | 0.00 | 0.00 | 0.00 | 42 | 1023.2 |
| 20260830174627 | 60 | 25 | 3.0 | 11.0 | 0.00 | 0.00 | 0.00 | 42 | 1023.2 |
| 20260830174123 | 60 | 52 | 4.0 | 11.0 | 0.00 | 0.00 | 0.00 | 42 | 1023.4 |
| 20260830173618 | 60 | 42 | 7.0 | 11.0 | 0.00 | 0.00 | 0.00 | 42 | 1023.2 |
| 20260830173113 | 59 | 70 | 2.0 | 5.0 | 0.00 | 0.00 | 0.00 | 44 | 1023.2 |
| 20260830172610 | 60 | 26 | 3.0 | 3.0 | 0.00 | 0.00 | 0.00 | 44 | 1023.4 |
| 20260830172106 | 60 | 314 | 5.0 | 8.0 | 0.00 | 0.00 | 0.00 | 43 | 1023.6 |
| 20260830171601 | 60 | 313 | 6.0 | 11.0 | 0.00 | 0.00 | 0.00 | 45 | 1023.4 |
| 20260830171056 | 59 | 326 | 3.0 | 5.0 | 0.00 | 0.00 | 0.00 | 45 | 1023.7 |
| 20260830170550 | 59 | 306 | 1.0 | 2.0 | 0.00 | 0.00 | 0.00 | 45 | 1023.4 |
| 20260830170050 | 59 | 262 | 3.0 | 7.0 | 0.00 | 0.00 | 0.00 | 46 | 1023.4 |
| 20260830165544 | 58 | 323 | 3.0 | 5.0 | 0.00 | 0.00 | 0.00 | 47 | 1023.5 |
| 20260830165040 | 59 | 313 | 5.0 | 8.0 | 0.00 | 0.00 | 0.00 | 47 | 1023.2 |
| 20260830164536 | 58 | 227 | 2.0 | 3.0 | 0.00 | 0.00 | 0.00 | 48 | 1023.2 |
| 20260830164032 | 57 | 40 | 4.0 | 5.0 | 0.00 | 0.00 | 0.00 | 48 | 1023.5 |
| 20260830163529 | 57 | 169 | 2.0 | 2.0 | 0.00 | 0.00 | 0.00 | 50 | 1023.4 |
| 20260830163028 | 57 | 332 | 1.0 | 1.0 | 0.00 | 0.00 | 0.00 | 50 | 1023.6 |
| 20260830162524 | 57 | 68 | 0.0 | 1.0 | 0.00 | 0.00 | 0.00 | 51 | 1023.4 |
| 20260830162024 | 56 | 134 | 1.0 | 2.0 | 0.00 | 0.00 | 0.00 | 53 | 1023.4 |
| 20260830161519 | 56 | 25 | 1.0 | 3.0 | 0.00 | 0.00 | 0.00 | 53 | 1023.4 |
| 20260830161014 | 55 | 33 | 1.0 | 2.0 | 0.00 | 0.00 | 0.00 | 53 | 1023.5 |
| 20260830160510 | 56 | 100 | 1.0 | 2.0 | 0.00 | 0.00 | 0.00 | 54 | 1023.5 |
| 20260830160005 | 55 | 120 | 1.0 | 2.0 | 0.00 | 0.00 | 0.00 | 55 | 1023.6 |
| 20260830155502 | 55 | 169 | 2.0 | 6.0 | 0.00 | 0.00 | 0.00 | 55 | 1023.5 |
| 20260830154957 | 56 | 152 | 5.0 | 7.0 | 0.00 | 0.00 | 0.00 | 55 | 1023.5 |
| 20260830154451 | 56 | 216 | 0.0 | 3.0 | 0.00 | 0.00 | 0.00 | 56 | 1023.5 |
| 20260830153948 | 55 | 81 | 0.0 | 3.0 | 0.00 | 0.00 | 0.00 | 55 | 1023.5 |
| 20260830153443 | 55 | 144 | 2.0 | 5.0 | 0.00 | 0.00 | 0.00 | 55 | 1023.6 |
| 20260830152942 | 54 | 114 | 1.0 | 1.0 | 0.00 | 0.00 | 0.00 | 57 | 1023.6 |
| 20260830152438 | 54 | 86 | 1.0 | 1.0 | 0.00 | 0.00 | 0.00 | 59 | 1023.7 |
| 20260830151931 | 53 | 122 | 2.0 | 3.0 | 0.00 | 0.00 | 0.00 | 61 | 1023.5 |
| 20260830151432 | 53 | 149 | 1.0 | 1.0 | 0.00 | 0.00 | 0.00 | 61 | 1023.2 |
| 20260830150926 | 53 | 219 | 2.0 | 3.0 | 0.00 | 0.00 | 0.00 | 62 | 1023.4 |
| 20260830150426 | 52 | 131 | 0.0 | 0.0 | 0.00 | 0.00 | 0.00 | 65 | 1023.6 |
| 20260830145920 | 50 | 133 | 0.0 | 2.0 | 0.00 | 0.00 | 0.00 | 68 | 1023.7 |
| 20260830145415 | 48 | 326 | 0.0 | 1.0 | 0.00 | 0.00 | 0.00 | 72 | 1023.7 |
| 20260830144910 | 47 | 44 | 0.0 | 0.0 | 0.00 | 0.00 | 0.00 | 73 | 1023.6 |
| 20260830144406 | 47 | 41 | 0.0 | 0.0 | 0.00 | 0.00 | 0.00 | 73 | 1023.8 |
| 20260830143901 | 46 | 109 | 0.0 | 1.0 | 0.00 | 0.00 | 0.00 | 73 | 1023.7 |
| 20260830143356 | 45 | 46 | 0.0 | 0.0 | 0.00 | 0.00 | 0.00 | 75 | 1023.9 |
| 20260830142855 | 44 | 43 | 0.0 | 0.0 | 0.00 | 0.00 | 0.00 | 77 | 1023.4 |
| 20260830142350 | 43 | 24 | 0.0 | 0.0 | 0.00 | 0.00 | 0.00 | 78 | 1023.6 |
| 20260830141846 | 43 | 241 | 0.0 | 0.0 | 0.00 | 0.00 | 0.00 | 78 | 1023.5 |
| 20260830141341 | 44 | 221 | 1.0 | 2.0 | 0.00 | 0.00 | 0.00 | 76 | 1023.2 |
| 20260830140836 | 43 | 132 | 1.0 | 2.0 | 0.00 | 0.00 | 0.00 | 77 | 1023.5 |
| 20260830140331 | 43 | 93 | 0.0 | 1.0 | 0.00 | 0.00 | 0.00 | 77 | 1023.4 |
| 20260830135825 | 43 | 85 | 0.0 | 1.0 | 0.00 | 0.00 | 0.00 | 76 | 1023.4 |
| 20260830135320 | 43 | 106 | 1.0 | 2.0 | 0.00 | 0.00 | 0.00 | 76 | 1023.2 |
| 20260830134816 | 42 | 131 | 1.0 | 3.0 | 0.00 | 0.00 | 0.00 | 77 | 1023.0 |
| 20260830134316 | 42 | 150 | 2.0 | 5.0 | 0.00 | 0.00 | 0.00 | 78 | 1023.1 |
| 20260830133812 | 41 | 153 | 1.0 | 6.0 | 0.00 | 0.00 | 0.00 | 79 | 1023.4 |
| 20260830133308 | 41 | 190 | 3.0 | 3.0 | 0.00 | 0.00 | 0.00 | 79 | 1023.5 |
| 20260830132803 | 39 | 130 | 0.0 | 1.0 | 0.00 | 0.00 | 0.00 | 82 | 1023.5 |
| 20260830132259 | 39 | 317 | 0.0 | 0.0 | 0.00 | 0.00 | 0.00 | 84 | 1023.4 |
| 20260830131758 | 38 | 253 | 2.0 | 3.0 | 0.00 | 0.00 | 0.00 | 84 | 1023.4 |
| 20260830131258 | 37 | 212 | 0.0 | 1.0 | 0.00 | 0.00 | 0.00 | 85 | 1023.2 |
| 20260830130753 | 37 | 246 | 0.0 | 0.0 | 0.00 | 0.00 | 0.00 | 85 | 1023.2 |
| 20260830130248 | 37 | 246 | 0.0 | 0.0 | 0.00 | 0.00 | 0.00 | 85 | 1023.4 |
| 20260830125747 | 38 | 243 | 0.0 | 0.0 | 0.00 | 0.00 | 0.00 | 83 | 1023.4 |
| 20260830125242 | 39 | 233 | 0.0 | 1.0 | 0.00 | 0.00 | 0.00 | 82 | 1023.4 |
| 20260830124740 | 38 | 141 | 0.0 | 1.0 | 0.00 | 0.00 | 0.00 | 82 | 1023.2 |
| 20260830124235 | 37 | 65 | 0.0 | 0.0 | 0.00 | 0.00 | 0.00 | 84 | 1022.9 |
| 20260830123732 | 37 | 60 | 0.0 | 0.0 | 0.00 | 0.00 | 0.00 | 84 | 1023.0 |
| 20260830123229 | 37 | 60 | 0.0 | 0.0 | 0.00 | 0.00 | 0.00 | 84 | 1023.0 |
| 20260830122726 | 37 | 27 | 0.0 | 0.0 | 0.00 | 0.00 | 0.00 | 84 | 1023.0 |
| 20260830122226 | 37 | 45 | 0.0 | 0.0 | 0.00 | 0.00 | 0.00 | 84 | 1023.2 |
| 20260830121722 | 37 | 62 | 0.0 | 0.0 | 0.00 | 0.00 | 0.00 | 82 | 1023.2 |
| 20260830121221 | 37 | 61 | 0.0 | 0.0 | 0.00 | 0.00 | 0.00 | 83 | 1023.2 |
| 20260830120715 | 38 | 61 | 0.0 | 0.0 | 0.00 | 0.00 | 0.00 | 82 | 1023.4 |
| 20260830120212 | 38 | 7 | 0.0 | 0.0 | 0.00 | 0.00 | 0.00 | 82 | 1023.1 |
| 20260830115708 | 38 | 345 | 1.0 | 1.0 | 0.00 | 0.00 | 0.00 | 82 | 1023.2 |
| 20260830115203 | 38 | 178 | 0.0 | 0.0 | 0.00 | 0.00 | 0.00 | 82 | 1023.1 |
| 20260830114700 | 39 | 153 | 0.0 | 0.0 | 0.00 | 0.00 | 0.00 | 80 | 1023.0 |
| 20260830114200 | 39 | 76 | 0.0 | 0.0 | 0.00 | 0.00 | 0.00 | 78 | 1023.1 |
| 20260830113655 | 38 | 111 | 0.0 | 1.0 | 0.00 | 0.00 | 0.00 | 80 | 1023.2 |
| 20260830113150 | 39 | 210 | 0.0 | 0.0 | 0.00 | 0.00 | 0.00 | 81 | 1023.2 |
| 20260830112646 | 39 | 210 | 0.0 | 1.0 | 0.00 | 0.00 | 0.00 | 80 | 1023.0 |